[[{"header":{"parameterUnit":"m.s-1","parameterCategory":1,"la1":30.2991,"la2":30.254,"lo1":-89.0895,"lo2":-89.0444,"dy":0.0017,"dx":0.0017,"nx":28,"ny":28,"refTime":"2024-02-03T09:00:00:Z","depth":0,"parameterNumber":2,"parameterNumberName":"U-component_of_WINDS"},"data":[0,0,0,0,0,0,0,0,0,0,0,0,0,0,0,0,0,0,0,0,0,0,0,0,0,0,0,0,0,0,0,0,0,0,0,0,0,0,0,0,0,0,0,0,0,0,0,0,0,0,0,0,0,0,0,0,0,0,2.6785,2.6787,0,2.697,2.6972,2.6975,2.7001,2.6999,2.6998,2.6996,2.7181,2.7187,2.7193,0,0,0,0,0,0,0,0,0,0,0,0,0,2.6446,2.6452,2.6784,2.6787,2.6789,2.697,2.6973,2.6975,2.7001,2.6999,2.6997,2.6995,2.7179,2.7186,2.7194,0,0,0,0,0,0,0,0,0,0,0,0,0,2.6608,2.6454,2.6784,2.6824,2.683,2.697,2.6973,2.6976,2.7002,2.6999,2.6997,2.6994,2.7176,2.7186,2.7195,2.7306,0,0,2.7225,2.7229,0,0,0,0,0,0,0,0,2.6599,2.662,2.6816,2.6822,2.6828,2.696,2.6921,2.7086,2.7002,2.6936,2.6996,2.6993,2.7109,2.7124,2.7164,2.7315,2.7323,2.7226,2.7232,2.7236,2.7239,0,0,0,0,0,0,0,2.6588,2.6613,2.6858,2.6819,2.6826,2.6831,2.6851,2.6952,2.7034,2.6942,2.6944,2.6966,2.7112,2.7155,2.7169,2.7326,2.7226,2.7234,2.724,2.7244,2.7574,2.7577,0,0,0,0,0,0,2.657,2.6603,2.6852,2.6863,2.6705,2.6839,2.6861,2.692,2.7033,2.7048,2.6968,2.6967,2.7139,2.7157,2.7175,2.7313,2.7236,2.7245,2.7251,2.7572,2.7575,2.7578,0,0,0,0,0,0,2.6562,2.6592,2.6844,2.6734,2.6767,2.6847,2.6913,2.6925,2.6969,2.7053,2.7067,2.6998,2.7138,2.7162,2.7274,2.732,2.7249,2.7258,2.7568,2.7573,2.7577,2.759,0,0,0,0,0,0,2.6553,2.6589,2.6634,2.6735,2.6772,2.6942,2.6916,2.6931,2.6986,2.6986,2.7085,2.7099,2.7138,2.7259,2.7283,2.7332,2.7266,2.7564,2.757,2.7575,2.7586,2.7594,2.7601,0,0,0,0,0,2.654,2.663,2.6636,2.6666,2.6831,2.6945,2.6966,2.7011,2.699,2.7035,2.7088,2.7096,2.731,2.727,2.7298,2.735,2.7562,2.7569,2.7575,2.7582,2.7592,2.7601,0,0,0,0,0,0,2.6532,2.6644,2.6653,2.6777,2.6851,2.6949,2.7008,2.7021,2.7101,2.7098,2.7147,2.7169,2.7279,2.7325,2.7279,2.7463,2.7434,2.7446,2.743,2.744,2.7448,2.7436,2.7274,0,0,0,0,0,2.6544,2.6629,2.6722,2.6823,2.6859,2.6927,2.6978,2.7006,2.7084,2.7115,2.7177,2.7251,2.7335,2.7389,2.7471,2.7591,2.7612,2.764,2.7648,2.7654,2.7665,2.773,2.7744,2.76,2.76,2.76,0,0,2.6571,2.6643,2.6694,2.6823,2.6884,2.6969,2.6953,2.7044,2.7107,2.7128,2.7239,2.7286,2.7371,2.7488,2.7542,2.753,2.7708,2.7662,2.7666,2.7674,2.7738,2.7752,2.7764,2.7604,2.7604,2.7603,0,0,2.6665,2.6727,2.6819,2.6879,2.6972,2.7015,2.7036,2.7132,2.7165,2.7276,2.7294,2.7367,2.7511,2.7571,2.762,2.7732,2.7741,2.7756,2.7799,2.7862,2.7873,2.7884,2.7924,2.7938,2.7766,2.7766,2.7766,0,2.6687,2.6819,2.6863,2.6954,2.701,2.7032,2.7124,2.718,2.7293,2.733,2.7314,2.7494,2.7553,2.7683,2.771,2.7749,2.7774,2.7747,2.7868,2.7879,2.7889,2.7929,2.7944,2.7768,2.7768,2.7767,2.7767,0,2.6841,2.6931,2.6993,2.7103,2.7165,2.7255,2.7312,2.7368,2.7389,2.7433,2.7545,2.7616,2.7712,2.7744,2.7765,2.7876,2.7866,2.7858,2.7831,2.7904,2.7942,2.7957,2.777,2.7769,2.7769,2.7768,0,0,2.6939,2.7071,2.7093,2.7143,2.7244,2.7314,2.7402,2.7498,2.7546,2.7621,2.7697,2.7816,2.781,2.7865,2.7892,2.7947,2.8031,2.7933,2.7935,2.795,2.8158,2.8165,2.8182,2.8036,2.8039,2.8042,2.8151,0,2.7046,2.721,2.7251,2.7389,2.7472,2.7493,2.757,2.7639,2.7681,2.7756,2.7801,2.7886,2.787,2.7904,2.7959,2.8009,2.8074,2.8001,2.8107,2.811,2.8089,2.8202,2.8211,2.8312,2.8166,2.8169,2.8171,0,2.7194,2.7274,2.7422,2.751,2.7547,2.7616,2.7706,2.7777,2.7854,2.7881,2.7941,2.7962,2.8053,2.8018,2.8143,2.8093,2.8137,2.8168,2.8173,2.8187,2.8148,2.8221,2.8345,2.8361,2.8194,2.8192,2.8191,0,2.7253,2.7397,2.7504,2.7545,2.7651,2.7699,2.7745,2.782,2.7874,2.795,2.7985,2.807,2.8118,2.8182,2.8224,2.8194,2.8346,2.8314,2.837,2.837,2.8405,2.8403,2.854,2.8428,2.8428,2.8428,2.8427,0,2.737,2.746,2.7532,2.7598,2.7697,2.7741,2.7838,2.7884,2.7949,2.8023,2.8043,2.8111,2.8161,2.8235,2.8267,2.8366,2.8387,2.841,2.8418,2.8411,2.8408,2.8443,2.8438,2.8432,2.8431,2.843,2.8429,0,2.7455,2.7507,2.7625,2.7714,2.7738,2.7808,2.7884,2.7947,2.7988,2.808,2.8104,2.8168,2.8256,2.8303,2.8412,2.8434,2.8546,2.8548,2.8521,2.8525,2.858,2.8575,2.8747,2.8772,2.864,2.8641,2.8642,0,2.7529,2.7599,2.7695,2.7747,2.7794,2.7876,2.7931,2.7974,2.803,2.8122,2.8173,2.8262,2.8337,2.8475,2.853,2.8613,2.8619,2.8673,2.8632,2.8622,2.8623,2.862,2.8627,2.8682,2.8683,2.8684,2.8685,0,2.7654,2.7675,2.7755,2.7843,2.7908,2.7979,2.8049,2.8089,2.8144,2.8205,2.8296,2.8353,2.8464,2.8552,2.8639,2.8683,2.8694,2.8697,2.8715,2.871,2.8692,2.8704,2.8544,2.8694,2.8693,2.8692,2.8692,2.8692,2.7738,2.78,2.7878,2.7965,2.8022,2.8086,2.815,2.8198,2.8275,2.8371,2.839,2.8486,2.8558,2.8676,2.8722,2.8795,2.8785,2.881,2.8817,2.8824,2.8827,2.8676,2.8811,2.881,2.881,2.881,2.881,0,2.7866,2.7916,2.7996,2.8093,2.8161,2.8164,2.824,2.8297,2.8381,2.8448,2.852,2.8623,2.8707,2.8767,2.8852,2.8899,2.8906,2.8921,2.8919,2.8929,2.8831,2.8808,2.8914,2.8914,2.8914,2.8914,2.8914,2.8914,2.7942,2.8048,2.8077,2.821,2.8259,2.8355,2.8398,2.8456,2.851,2.8625,2.8695,2.8734,2.8797,2.8886,2.8963,2.8978,2.9009,2.9024,2.9039,2.8947,2.8936,2.8926,2.8905,2.9029,2.903,2.9132,2.9133,2.9134]},{"header":{"parameterUnit":"m.s-1","parameterCategory":1,"la1":30.2991,"la2":30.254,"lo1":-89.0895,"lo2":-89.0444,"dy":0.0017,"dx":0.0017,"nx":28,"ny":28,"refTime":"2024-02-03T09:00:00:Z","depth":0,"parameterNumber":3,"parameterNumberName":"V-component_of_WINDS"},"data":[0,0,0,0,0,0,0,0,0,0,0,0,0,0,0,0,0,0,0,0,0,0,0,0,0,0,0,0,0,0,0,0,0,0,0,0,0,0,0,0,0,0,0,0,0,0,0,0,0,0,0,0,0,0,0,0,0,0,-6.6059,-6.6065,0,-6.6595,-6.6601,-6.6607,-6.6691,-6.6686,-6.6681,-6.6677,-6.721,-6.7228,-6.7246,0,0,0,0,0,0,0,0,0,0,0,0,0,-6.5096,-6.5113,-6.6058,-6.6065,-6.6072,-6.6594,-6.6601,-6.6608,-6.6691,-6.6686,-6.668,-6.6674,-6.7204,-6.7226,-6.7248,0,0,0,0,0,0,0,0,0,0,0,0,0,-6.5561,-6.5119,-6.6057,-6.6177,-6.6193,-6.6592,-6.6601,-6.661,-6.6693,-6.6685,-6.6678,-6.6672,-6.7196,-6.7223,-6.7251,-6.7564,0,0,-6.7336,-6.7348,0,0,0,0,0,0,0,0,-6.5534,-6.5596,-6.6152,-6.6169,-6.6188,-6.6569,-6.6457,-6.693,-6.6694,-6.6502,-6.6676,-6.6668,-6.7001,-6.7045,-6.716,-6.7589,-6.7612,-6.7339,-6.7356,-6.7368,-6.7375,0,0,0,0,0,0,0,-6.5502,-6.5573,-6.627,-6.616,-6.6182,-6.62,-6.6258,-6.6547,-6.6784,-6.6518,-6.6526,-6.6589,-6.7009,-6.7133,-6.7173,-6.762,-6.7338,-6.7363,-6.738,-6.7391,-6.8336,-6.8344,0,0,0,0,0,0,-6.545,-6.5546,-6.6253,-6.6286,-6.5838,-6.6223,-6.6288,-6.6453,-6.6782,-6.6825,-6.6594,-6.6591,-6.7089,-6.7141,-6.7192,-6.7584,-6.7367,-6.7393,-6.7409,-6.8327,-6.8338,-6.8347,0,0,0,0,0,0,-6.5429,-6.5512,-6.6232,-6.5919,-6.6012,-6.6247,-6.6432,-6.6468,-6.6592,-6.6839,-6.688,-6.6678,-6.7086,-6.7153,-6.7473,-6.7604,-6.7406,-6.7431,-6.8318,-6.833,-6.8342,-6.8368,0,0,0,0,0,0,-6.5401,-6.5504,-6.5628,-6.5921,-6.6028,-6.6507,-6.644,-6.6483,-6.6642,-6.6642,-6.6929,-6.6969,-6.7085,-6.7431,-6.7501,-6.7638,-6.7453,-6.8307,-6.8323,-6.8338,-6.8356,-6.8379,-6.8399,0,0,0,0,0,-6.5366,-6.561,-6.5634,-6.5719,-6.6189,-6.6515,-6.6576,-6.6709,-6.6652,-6.6777,-6.6937,-6.696,-6.7578,-6.7463,-6.7542,-6.769,-6.8299,-6.8319,-6.8337,-6.8346,-6.8375,-6.8399,0,0,0,0,0,0,-6.5321,-6.565,-6.5681,-6.6027,-6.6243,-6.6528,-6.6691,-6.6734,-6.6966,-6.6956,-6.7106,-6.717,-6.7483,-6.7618,-6.7485,-6.8012,-6.7933,-6.7969,-6.7913,-6.7942,-6.7963,-6.7925,-6.7476,0,0,0,0,0,-6.5352,-6.5593,-6.5866,-6.6145,-6.6253,-6.6453,-6.66,-6.6685,-6.6912,-6.7002,-6.7184,-6.74,-6.7643,-6.7799,-6.8036,-6.8375,-6.8439,-6.8516,-6.8537,-6.8554,-6.8583,-6.8774,-6.8812,-6.8409,-6.8408,-6.8408,0,0,-6.5417,-6.5627,-6.5769,-6.6142,-6.6319,-6.6563,-6.6529,-6.6787,-6.6969,-6.7039,-6.7356,-6.7496,-6.7747,-6.8079,-6.8233,-6.8201,-6.8709,-6.8578,-6.8589,-6.861,-6.8798,-6.8836,-6.8869,-6.8421,-6.8419,-6.8417,0,0,-6.5661,-6.5844,-6.6099,-6.6279,-6.655,-6.6682,-6.6743,-6.7024,-6.7123,-6.7443,-6.7502,-6.7717,-6.8132,-6.8309,-6.8453,-6.8768,-6.8799,-6.884,-6.8954,-6.9138,-6.917,-6.9199,-6.9314,-6.9353,-6.8868,-6.8868,-6.8868,0,-6.5707,-6.6081,-6.6222,-6.6482,-6.6644,-6.6725,-6.6984,-6.7149,-6.7481,-6.7589,-6.7549,-6.8075,-6.8248,-6.8624,-6.8702,-6.8815,-6.8888,-6.8809,-6.9155,-6.9186,-6.9215,-6.9325,-6.9368,-6.8872,-6.8871,-6.8871,-6.8871,0,-6.6125,-6.6383,-6.6555,-6.6882,-6.7063,-6.7319,-6.7498,-6.7663,-6.7732,-6.7867,-6.8193,-6.8405,-6.8688,-6.8782,-6.8849,-6.9169,-6.9141,-6.9125,-6.905,-6.9254,-6.9361,-6.9404,-6.8877,-6.8876,-6.8875,-6.8874,0,0,-6.6354,-6.6759,-6.682,-6.6971,-6.7277,-6.7478,-6.7737,-6.8021,-6.8161,-6.8386,-6.8607,-6.8958,-6.8949,-6.9112,-6.9199,-6.9361,-6.96,-6.9327,-6.9335,-6.9372,-6.9967,-6.9978,-7.0025,-6.9622,-6.963,-6.9637,-6.9947,0,-6.6636,-6.7108,-6.7245,-6.7641,-6.7882,-6.7964,-6.819,-6.84,-6.8534,-6.8754,-6.8899,-6.9148,-6.9114,-6.9214,-6.9378,-6.9536,-6.9721,-6.9515,-6.9826,-6.9836,-6.9765,-7.0081,-7.0093,-7.0375,-6.9989,-6.9996,-7.0001,0,-6.7028,-6.7269,-6.7691,-6.7971,-6.8077,-6.8279,-6.8552,-6.8762,-6.9002,-6.9087,-6.9273,-6.9347,-6.9617,-6.9526,-6.99,-6.9757,-6.9892,-6.9989,-7.0003,-7.0038,-6.9932,-7.0127,-7.0468,-7.0511,-7.0068,-7.0063,-7.0058,0,-6.7156,-6.7585,-6.7895,-6.8021,-6.8354,-6.8494,-6.8638,-6.8872,-6.9035,-6.927,-6.9377,-6.9638,-6.9781,-6.9979,-7.0121,-7.0041,-7.0484,-7.0403,-7.0561,-7.0558,-7.0652,-7.0644,-7.1022,-7.0734,-7.0733,-7.0733,-7.0732,0,-6.7458,-6.7713,-6.7958,-6.8148,-6.8437,-6.859,-6.887,-6.9017,-6.9225,-6.9443,-6.9526,-6.9727,-6.9901,-7.0125,-7.0236,-7.053,-7.0593,-7.0668,-7.0695,-7.0663,-7.0654,-7.0754,-7.0739,-7.0744,-7.0742,-7.0739,-7.0737,0,-6.7649,-6.7824,-6.8168,-6.8457,-6.8536,-6.8736,-6.8982,-6.9169,-6.9306,-6.9581,-6.9654,-6.9868,-7.0137,-7.0298,-7.0634,-7.0709,-7.1035,-7.1052,-7.0957,-7.097,-7.112,-7.1104,-7.1577,-7.1648,-7.131,-7.1313,-7.1315,0,-6.7831,-6.8032,-6.8345,-6.8501,-6.8649,-6.8896,-6.9065,-6.9223,-6.9394,-6.9685,-6.9836,-7.0111,-7.034,-7.0764,-7.0946,-7.1205,-7.123,-7.1378,-7.1269,-7.1232,-7.1236,-7.1223,-7.1245,-7.1397,-7.14,-7.1402,-7.1404,0,-6.8137,-6.8215,-6.8458,-6.8733,-6.8934,-6.9156,-6.9376,-6.9497,-6.9691,-6.9879,-7.0159,-7.0337,-7.0686,-7.0957,-7.1232,-7.1375,-7.1423,-7.1437,-7.1488,-7.1458,-7.1396,-7.1435,-7.101,-7.1426,-7.1423,-7.1422,-7.1421,-7.142,-6.8332,-6.8515,-6.8767,-6.9035,-6.9219,-6.9425,-6.9617,-6.9781,-7.0019,-7.032,-7.0397,-7.069,-7.0925,-7.1302,-7.1451,-7.168,-7.1656,-7.1728,-7.1747,-7.1764,-7.1769,-7.1358,-7.1729,-7.1729,-7.1729,-7.1728,-7.1728,0,-6.8644,-6.8812,-6.9057,-6.9368,-6.9579,-6.9611,-6.9858,-7.0031,-7.0291,-7.051,-7.0736,-7.1057,-7.1322,-7.1527,-7.1798,-7.1942,-7.197,-7.2008,-7.2,-7.2032,-7.1774,-7.1705,-7.1981,-7.1981,-7.1981,-7.1981,-7.198,-7.198,-6.8832,-6.9145,-6.9253,-6.9658,-6.9822,-7.0117,-7.0255,-7.0445,-7.0621,-7.098,-7.1204,-7.1338,-7.1551,-7.1839,-7.2082,-7.2135,-7.2232,-7.2266,-7.2323,-7.2077,-7.205,-7.2024,-7.196,-7.2285,-7.2286,-7.2563,-7.2566,-7.2568]}]]